When you browse on this site, cookies collect data to enhance your experience and personalize the content and advertising you see.
Visit our Privacy Policy to learn more. By continuing to use the site, you agree to this use of cookies and data.
  • In Spain
  • List of Countries
  • For 7 days
  • Water Temperature
  • Weather Map
  • Weather Widgets
  • user-avatar
    Login

    Hourly Weather Kariba

    Today, 20 October, Sunday

    Time Temperature Precipitation Wind Pressure Humidity
    00:00 +35°C° 0 mm 3 mps 721 mmHg 26%
    01:00 +35°C° 0 mm 2 mps 721 mmHg 28%
    02:00 +34°C° 0 mm 2 mps 721 mmHg 30%
    03:00 +34°C° 0 mm 3 mps 721 mmHg 27%
    04:00 +34°C° 0 mm 3 mps 721 mmHg 25%
    05:00 +34°C° 0 mm 4 mps 721 mmHg 22%
    06:00 +34°C° 0 mm 4 mps 722 mmHg 23%
    07:00 +34°C° 0 mm 5 mps 722 mmHg 24%
    08:00 +34°C° 0 mm 5 mps 722 mmHg 25%
    09:00 +36°C° 0 mm 5 mps 722 mmHg 23%
    10:00 +37°C° 0 mm 4 mps 723 mmHg 21%
    11:00 +40°C° 0 mm 4 mps 723 mmHg 19%
    12:00 +41°C° 0 mm 4 mps 722 mmHg 18%
    13:00 +42°C° 0 mm 4 mps 721 mmHg 17%
    14:00 +42°C° 0 mm 3 mps 720 mmHg 16%
    15:00 +42°C° 0 mm 4 mps 720 mmHg 16%
    16:00 +42°C° 0 mm 4 mps 720 mmHg 16%
    17:00 +42°C° 0 mm 4 mps 719 mmHg 16%
    18:00 +41°C° 0 mm 4 mps 720 mmHg 17%
    19:00 +40°C° 0 mm 4 mps 720 mmHg 19%
    20:00 +38°C° 0 mm 4 mps 720 mmHg 20%
    21:00 +38°C° 0 mm 4 mps 720 mmHg 21%
    22:00 +37°C° 0 mm 4 mps 721 mmHg 22%
    23:00 +36°C° 0 mm 4 mps 721 mmHg 23%

    Tomorrow, 21 October, Monday

    Time Temperature Precipitation Wind Pressure Humidity
    00:00 +36°C° 0 mm 4 mps 720 mmHg 24%
    01:00 +36°C° 0 mm 4 mps 720 mmHg 24%
    02:00 +35°C° 0 mm 4 mps 720 mmHg 25%
    03:00 +35°C° 0 mm 5 mps 720 mmHg 26%
    04:00 +35°C° 0 mm 5 mps 720 mmHg 26%
    05:00 +35°C° 0 mm 6 mps 720 mmHg 27%
    06:00 +35°C° 0 mm 6 mps 721 mmHg 26%
    07:00 +35°C° 0 mm 7 mps 721 mmHg 25%
    08:00 +35°C° 0 mm 7 mps 722 mmHg 24%
    09:00 +38°C° 0 mm 7 mps 722 mmHg 22%
    10:00 +39°C° 0 mm 7 mps 721 mmHg 20%
    11:00 +41°C° 0 mm 6 mps 721 mmHg 17%
    12:00 +42°C° 0 mm 6 mps 721 mmHg 17%
    13:00 +42°C° 0 mm 6 mps 720 mmHg 16%
    14:00 +43°C° 0 mm 5 mps 719 mmHg 15%
    15:00 +42°C° 0 mm 5 mps 719 mmHg 16%
    16:00 +42°C° 0 mm 5 mps 719 mmHg 16%
    17:00 +42°C° 0 mm 4 mps 718 mmHg 17%
    18:00 +41°C° 0 mm 4 mps 719 mmHg 18%
    19:00 +40°C° 0 mm 4 mps 719 mmHg 19%
    20:00 +40°C° 0 mm 4 mps 720 mmHg 20%
    21:00 +38°C° 0 mm 4 mps 720 mmHg 21%
    22:00 +38°C° 0 mm 4 mps 720 mmHg 21%
    23:00 +37°C° 0 mm 4 mps 720 mmHg 22%

    Day after tomorrow, 22 October, Tuesday

    Time Temperature Precipitation Wind Pressure Humidity
    00:00 +37°C° 0 mm 5 mps 719 mmHg 22%
    01:00 +36°C° 0 mm 5 mps 719 mmHg 23%
    02:00 +36°C° 0 mm 6 mps 719 mmHg 23%
    03:00 +35°C° 0 mm 6 mps 719 mmHg 22%
    04:00 +34°C° 0 mm 5 mps 719 mmHg 22%
    05:00 +34°C° 0 mm 5 mps 719 mmHg 21%
    06:00 +34°C° 0 mm 6 mps 720 mmHg 20%
    07:00 +34°C° 0 mm 7 mps 720 mmHg 19%
    08:00 +34°C° 0 mm 8 mps 721 mmHg 18%
    09:00 +35°C° 0 mm 7 mps 721 mmHg 17%
    10:00 +38°C° 0 mm 6 mps 721 mmHg 15%
    11:00 +40°C° 0 mm 6 mps 721 mmHg 14%
    12:00 +40°C° 0 mm 5 mps 720 mmHg 14%
    13:00 +41°C° 0 mm 5 mps 719 mmHg 13%
    14:00 +42°C° 0 mm 4 mps 719 mmHg 13%
    15:00 +41°C° 0 mm 5 mps 719 mmHg 13%
    16:00 +41°C° 0 mm 5 mps 719 mmHg 13%
    17:00 +41°C° 0 mm 5 mps 718 mmHg 13%
    18:00 +40°C° 0 mm 4 mps 719 mmHg 15%
    19:00 +38°C° 0 mm 4 mps 719 mmHg 16%
    20:00 +37°C° 0 mm 4 mps 719 mmHg 17%
    21:00 +36°C° 0 mm 4 mps 719 mmHg 18%
    22:00 +35°C° 0 mm 4 mps 719 mmHg 19%
    23:00 +35°C° 0 mm 3 mps 719 mmHg 20%

    23 October, Wednesday

    Time Temperature Precipitation Wind Pressure Humidity
    00:00 +34°C° 0 mm 4 mps 719 mmHg 20%
    01:00 +34°C° 0 mm 4 mps 719 mmHg 21%
    02:00 +33°C° 0 mm 5 mps 719 mmHg 22%
    03:00 +33°C° 0 mm 5 mps 719 mmHg 22%
    04:00 +32°C° 0 mm 5 mps 720 mmHg 22%
    05:00 +30°C° 0 mm 5 mps 720 mmHg 22%
    06:00 +32°C° 0 mm 6 mps 720 mmHg 22%
    07:00 +32°C° 0 mm 7 mps 721 mmHg 22%
    08:00 +32°C° 0 mm 8 mps 721 mmHg 22%
    09:00 +34°C° 0 mm 8 mps 721 mmHg 20%
    10:00 +35°C° 0 mm 7 mps 721 mmHg 18%
    11:00 +38°C° 0 mm 7 mps 721 mmHg 17%
    12:00 +39°C° 0 mm 6 mps 720 mmHg 16%
    13:00 +40°C° 0 mm 6 mps 720 mmHg 15%
    14:00 +41°C° 0 mm 5 mps 719 mmHg 14%
    15:00 +40°C° 0 mm 5 mps 719 mmHg 14%
    16:00 +40°C° 0 mm 4 mps 719 mmHg 15%
    17:00 +40°C° 0 mm 4 mps 719 mmHg 15%
    18:00 +38°C° 0 mm 4 mps 719 mmHg 16%
    19:00 +37°C° 0 mm 4 mps 719 mmHg 17%
    20:00 +36°C° 0 mm 5 mps 720 mmHg 19%
    21:00 +35°C° 0 mm 5 mps 720 mmHg 19%
    22:00 +35°C° 0 mm 5 mps 720 mmHg 20%
    23:00 +34°C° 0 mm 5 mps 720 mmHg 20%

    24 October, Thursday

    Time Temperature Precipitation Wind Pressure Humidity
    00:00 +33°C° 0 mm 5 mps 720 mmHg 21%
    01:00 +33°C° 0 mm 5 mps 720 mmHg 21%
    02:00 +32°C° 0 mm 5 mps 720 mmHg 22%
    03:00 +32°C° 0 mm 5 mps 720 mmHg 23%
    04:00 +30°C° 0 mm 5 mps 720 mmHg 24%
    05:00 +29°C° 0 mm 5 mps 720 mmHg 26%
    06:00 +30°C° 0 mm 6 mps 721 mmHg 25%
    07:00 +30°C° 0 mm 6 mps 721 mmHg 25%
    08:00 +32°C° 0 mm 7 mps 722 mmHg 25%
    09:00 +33°C° 0 mm 7 mps 722 mmHg 23%
    10:00 +35°C° 0 mm 7 mps 722 mmHg 20%
    11:00 +38°C° 0 mm 6 mps 722 mmHg 18%
    12:00 +39°C° 0 mm 6 mps 721 mmHg 17%
    13:00 +39°C° 0 mm 6 mps 720 mmHg 15%
    14:00 +40°C° 0 mm 5 mps 720 mmHg 14%
    15:00 +40°C° 0 mm 5 mps 719 mmHg 14%
    16:00 +40°C° 0 mm 5 mps 719 mmHg 14%
    17:00 +39°C° 0 mm 5 mps 719 mmHg 14%
    18:00 +37°C° 0 mm 4 mps 720 mmHg 15%
    19:00 +36°C° 0 mm 4 mps 720 mmHg 16%
    20:00 +35°C° 0 mm 4 mps 720 mmHg 17%
    21:00 +35°C° 0 mm 4 mps 720 mmHg 17%
    22:00 +34°C° 0 mm 4 mps 720 mmHg 18%
    23:00 +33°C° 0 mm 4 mps 720 mmHg 18%

    25 October, Friday

    Time Temperature Precipitation Wind Pressure Humidity
    00:00 +33°C° 0 mm 4 mps 720 mmHg 18%
    01:00 +32°C° 0 mm 5 mps 720 mmHg 19%
    02:00 +32°C° 0 mm 5 mps 720 mmHg 19%
    03:00 +30°C° 0 mm 5 mps 720 mmHg 21%
    04:00 +30°C° 0 mm 5 mps 720 mmHg 22%
    05:00 +29°C° 0 mm 5 mps 720 mmHg 23%
    06:00 +29°C° 0 mm 6 mps 721 mmHg 23%
    07:00 +30°C° 0 mm 6 mps 721 mmHg 22%
    08:00 +30°C° 0 mm 7 mps 722 mmHg 22%
    09:00 +33°C° 0 mm 7 mps 722 mmHg 20%
    10:00 +34°C° 0 mm 7 mps 722 mmHg 17%
    11:00 +36°C° 0 mm 6 mps 722 mmHg 15%
    12:00 +38°C° 0 mm 6 mps 721 mmHg 14%
    13:00 +39°C° 0 mm 5 mps 720 mmHg 13%
    14:00 +39°C° 0 mm 5 mps 720 mmHg 12%
    15:00 +39°C° 0 mm 5 mps 720 mmHg 13%
    16:00 +39°C° 0 mm 5 mps 719 mmHg 13%
    17:00 +37°C° 0 mm 5 mps 719 mmHg 13%
    18:00 +36°C° 0 mm 4 mps 720 mmHg 14%
    19:00 +35°C° 0 mm 4 mps 720 mmHg 16%
    20:00 +34°C° 0 mm 4 mps 720 mmHg 17%
    21:00 +34°C° 0 mm 4 mps 720 mmHg 17%
    22:00 +33°C° 0 mm 4 mps 720 mmHg 18%
    23:00 +32°C° 0 mm 4 mps 720 mmHg 19%
    Show more